Regional Weather Roundup
Issued by NWS

Home | Current Version | Previous Version | Text Only | Print | Product List | Glossary Off
Versions: 1 2 3 4 5 6 7 8 9 10 11 12 13 14 15 16 17 18 19 20 21 22 23 24 25 26 27 28 29 30 31 32 33 34 35 36 37 38 39 40 41 42 43 44 45 46 47 48 49 50

485
ASUS43 KDMX 241806
RWRIA

WEATHER ROUNDUP FOR IOWA
NATIONAL WEATHER SERVICE DES MOINES IA
100 PM CDT WED MAY 24 2017

NOTE: "FAIR" INDICATES FEW OR NO CLOUDS BELOW 12,000 FEET WITH NO
SIGNIFICANT WEATHER AND/OR OBSTRUCTIONS TO VISIBILITY.

* - THESE STATIONS ARE NOT NWS STATIONS...THUS NOT UNDER NWS
QUALITY CONTROL.  THEY ALSO DO NOT REPORT WEATHER SUCH
AS PRECIPITATION OR FOG.

IAZ001>003-012>014-020>022-031>034-043>046-241900-
   NORTHWEST IOWA

CITY           SKY/WX    TMP DP  RH WIND       PRES   REMARKS
CARROLL *      PTSUNNY   59  50  72 N10       29.72S
CHEROKEE *     PTSUNNY   60  48  64 N8        29.73F
DENISON *      PTSUNNY   59  46  63 N13       29.74F
LE MARS *      MOSUNNY   59  46  63 VRB5      29.75F
ORANGE CITY *  MOSUNNY   59  48  67 N3        29.74F
SHELDON *      MOSUNNY   57  46  67 VRB5G14     N/A
SIOUX CITY     MOSUNNY   61  50  67 N6        29.75F
6HR MIN TEMP:  46; 6HR MAX TEMP:  62;

SPENCER        MOSUNNY   61  47  59 NE10      29.73F
6HR MIN TEMP:  47; 6HR MAX TEMP:  61;

STORM LAKE *     N/A     59  43  55 NE9G17    29.73F
$$

IAZ055>058-069>071-079>083-090>094-241900-
   SOUTHWEST IOWA

CITY           SKY/WX    TMP DP  RH WIND       PRES   REMARKS
ATLANTIC *     MOSUNNY   61  50  67 N12G17    29.71F
AUDUBON *      PTSUNNY   59  50  72 N12       29.72F
CLARINDA *     PTSUNNY   63  48  59 N15G22    29.72F
COUNCIL BLFS *   N/A     61  46  59 N10G17    29.73F
CRESTON *      CLOUDY    57  48  72 N9G20     29.71S
HARLAN  *      PTSUNNY   59  46  63 N10G16    29.76S
LAMONI         CLOUDY    60  52  74 N14       29.67F
6HR MIN TEMP:  51; 6HR MAX TEMP:  60; 6HR PCP:  0.02;

RED OAK *      PTSUNNY   63  48  59 N10G20    29.72F
SHENANDOAH *   PTSUNNY   63  46  55 N17       29.72F
$$

IAZ047>049-059>061-072>074-084-241900-
   CENTRAL IOWA

CITY           SKY/WX    TMP DP  RH WIND       PRES   REMARKS
AMES           CLOUDY    57  50  77 NE13      29.70S
6HR MIN TEMP:  52; 6HR MAX TEMP:  57;

ANKENY *       CLOUDY    55  50  82 NE9       29.70F
BOONE *        PTSUNNY   57  52  82 NE15      29.70S
CHARITON *     CLOUDY    57  50  77 N15       29.67S
DES MOINES     CLOUDY    58  50  75 N10       29.69S
6HR MIN TEMP:  53; 6HR MAX TEMP:  58; 6HR PCP: TRACE;

GRINNELL*      CLOUDY    58  51  76 N15G21    29.68S
KNOXVILLE *    CLOUDY    57  50  77 N8G15     29.66S
MARSHALLTOWN   CLOUDY    57  51  80 N14       29.67F
6HR MIN TEMP:  51; 6HR MAX TEMP:  58;

NEWTON *       CLOUDY    57  52  82 N13       29.67S
PELLA *        CLOUDY    58  49  72 N9G16     29.68S
PERRY *        CLOUDY    60  52  74 NE10      29.70F
$$

IAZ004>006-015-016-023>025-035-036-241900-
   NORTH CENTRAL IOWA

CITY           SKY/WX    TMP DP  RH WIND       PRES   REMARKS
ALGONA *       PTSUNNY   57  50  77 N12       29.73F
CLARION *      PTSUNNY   57  52  82 N12G17    29.71S
ESTHERVILLE    PTSUNNY   57  48  72 N13       29.73F
6HR MIN TEMP:  45; 6HR MAX TEMP:  58;

FORT DODGE *   CLOUDY    57  48  72 N7        29.73S
MASON CITY     CLOUDY    56  48  74 N12       29.72F
6HR MIN TEMP:  48; 6HR MAX TEMP:  58;

FOREST CITY *  PTSUNNY   61  43  51 N9        29.72S
WEBSTER CITY * CLOUDY    57  50  77 N14       29.69S
IOWA FALLS *   CLOUDY    59  51  74 NE10      29.70F
$$

IAZ007>011-017>019-026>030-037>042-050>054-066-241900-
   NORTHEAST IOWA

CITY           SKY/WX    TMP DP  RH WIND       PRES   REMARKS
CEDAR RAPIDS   CLOUDY    58  51  78 N13       29.64S
6HR MIN TEMP:  52; 6HR MAX TEMP:  58;

CHARLES CITY * CLOUDY    57  50  77 NE13      29.69F
CLINTON *      CLOUDY    59  51  75 N12       29.62F
DECORAH *      CLOUDY    54  48  82 N7G15     29.67F
DUBUQUE        CLOUDY    56  49  77 N10       29.64S
6HR MIN TEMP:  50; 6HR MAX TEMP:  56;

MONTICELLO *   CLOUDY    57  50  77 N12G17    29.64S
OELWEIN *      CLOUDY    55  50  82 NE17      29.67F
WATERLOO       CLOUDY    57  49  74 N15       29.67F
6HR MIN TEMP:  51; 6HR MAX TEMP:  58;

$$

IAZ064-065-067-068-078-241900-
   EAST CENTRAL IOWA

CITY           SKY/WX    TMP DP  RH WIND       PRES   REMARKS
DAVENPORT      CLOUDY    59  50  72 N10       29.62S
6HR MIN TEMP:  51; 6HR MAX TEMP:  60;

IOWA CITY      CLOUDY    60  50  69 NE10      29.65S
6HR MIN TEMP:  53; 6HR MAX TEMP:  61; 6HR PCP: TRACE;

MT. PLEASANT * CLOUDY    62  50  65 N6        29.62S
MUSCATINE *    CLOUDY    63  52  67 N16G24    29.62S
QUAD CITIES    CLOUDY    61  48  62 N7        29.60S
6HR MIN TEMP:  52; 6HR MAX TEMP:  63;

$$

IAZ062-063-075>077-085>089-095>099-241900-
   SOUTHEAST IOWA

CITY           SKY/WX    TMP DP  RH WIND       PRES   REMARKS
BURLINGTON     CLOUDY    65  55  70 N8        29.59F
6HR MIN TEMP:  49; 6HR MAX TEMP:  65;

FAIRFIELD *    PTSUNNY   57  52  82 N15       29.63S
FORT MADISON * CLOUDY    63  54  72 NW9       29.61F
KEOKUK *       LGT RAIN  61  52  72 N9        29.60F
OSKALOOSA *    CLOUDY    59  50  72 N10       29.65S
CENTERVILLE *    N/A     57  54  88 NW13      29.66S
OTTUMWA        CLOUDY    61  53  75 N8        29.64F
6HR MIN TEMP:  49; 6HR MAX TEMP:  61; 6HR PCP: TRACE;

WASHINGTON *   CLOUDY    59  54  82 NE14      29.63F
$$

ABBREVIATIONS USED IN REMARKS
   TC - TEMPERATURES IN CELSIUS
  WCI - WIND CHILL INDEX
   HX - HEAT INDEX
  VSB - VISIBILITY
$$





USA.gov is the U.S. government's official web portal to all federal, state and local government web resources and services.